Regional Weather Roundup
Issued by NWS Burlington, VT

Current Version | Previous Version | Text Only | Print | Product List | Glossary On
Versions: 1 2 3 4 5 6 7 8 9 10 11 12 13 14 15 16 17 18 19 20 21 22 23 24 25 26 27 28 29 30 31 32 33 34 35 36 37 38 39 40 41 42 43 44 45 46 47 48 49 50
571 ASUS41 KBTV 021910 RWRBTV VERMONT REGIONAL WEATHER ROUNDUP NATIONAL WEATHER SERVICE BURLINGTON VT 200 PM EST FRI DEC 02 2016 NOTE: "FAIR" INDICATES FEW OR NO CLOUDS BELOW 12,000 FEET WITH NO SIGNIFICANT WEATHER AND/OR OBSTRUCTIONS TO VISIBILITY. * THESE REPORTS ARE NOT UNDER NWS QUALITY CONTROL AND/OR DO NOT REPORT WEATHER SUCH AS PRECIPITATION AND FOG. VTZ001>019-022000- _____VERMONT_____ CITY SKY/WX TMP DP RH WIND PRES REMARKS BURLINGTON CLOUDY 47 34 60 SW7 29.66F MONTPELIER CLOUDY 40 35 83 SW9G21 29.69R MORRISVILLE LGT RAIN 41 36 82 S6 29.67R ST. JOHNSBURY* N/A 45 35 68 MISG 29.63R LYNDONVILLE* DRIZZLE 40 35 82 SW6 29.65R MIDDLEBURY* CLOUDY 45 33 64 SW6 29.69S RUTLAND* CLOUDY 43 32 65 W9G25 29.71S SPRINGFIELD CLOUDY 45 29 53 SW14G20 29.71S HIGHGATE* LGT RAIN 39 35 86 W10 29.66R NEWPORT* PTSUNNY 39 35 86 SW12G21 29.63S BENNINGTON CLOUDY 45 28 51 SW16G25 29.74F SUTTON* N/A 37 N/A N/A MISG N/A _____LAKE CHAMPLAIN_____ CITY SKY/WX TMP DP RH WIND PRES REMARKS $$ NYZ007-026>031-035-052-083-087-022000- _____NORTHERN NEW YORK_____ CITY SKY/WX TMP DP RH WIND PRES REMARKS PLATTSBURGH CLOUDY 47 33 58 SW9 29.65S SARANAC LAKE CLOUDY 36 32 85 SW14G22 29.63S WCI 27 MASSENA LGT RAIN 38 33 82 W8 29.70S OGDENSBURG* LGT RAIN 41 36 84 W12G20 29.70R WATERTOWN CLOUDY 43 33 68 W17G28 29.75S FT DRUM CLOUDY 41 32 71 W12 29.71S ALBANY PTSUNNY 47 27 45 W12 29.78F GLENS FALLS PTSUNNY 48 31 51 W9G20 29.74S $$ NHZ002-005-011-022000- _____NEW HAMPSHIRE_____ CITY SKY/WX TMP DP RH WIND PRES REMARKS LEBANON PTSUNNY 47 33 58 W10G21 29.68R MT WASHINGTON SNOWSHWR 19 19 100 W45G55 N/A VSB 0 WCI -3 PLYMOUTH N/A 46 32 57 W5 29.66F WHITEFIELD CLOUDY 43 32 65 SW7 29.63S $$ _____REGIONAL QUEBEC LOCATIONS_____ CITY SKY/WX TMP DP RH WIND PRES REMARKS MONTREAL LGT RAIN 39 34 81 W13 29.65R WCI 32 QUEBEC CITY LGT SNOW 32 32 100 E9 29.59S VSB 1 WCI 24 SHERBROOKE LGT RAIN 39 37 93 SW8 29.59S _____REGIONAL ONTARIO LOCATIONS_____ CITY SKY/WX TMP DP RH WIND PRES REMARKS OTTAWA CLOUDY 39 30 70 W13 29.69R WCI 32 ______KEY______ VSB - VISIBILITY IN MILES WCI - WIND CHILL INDEX HX - HEAT INDEX $$ NNNN

USA.gov is the U.S. government's official web portal to all federal, state and local government web resources and services.